Flag for U.S.A. Weather past 2 weeks in Lincoln, Nebraska, U.S.A.

Now
67 °F

Sunny.


Feels Like: 67 °F
Forecast: 47 / 72 °F
Wind: 10 mph from Northeast

Location: Lincoln Municipal Airport

Current Time: Sep 21, 2014 at 7:18:48 PM

Latest Report: Sep 21, 2014 at 6:54 PM


Visibility: 10 mi

Pressure: 30.22 "Hg

Humidity: 51%

Dew point: 48 °F

Location of LincolnLocation

Historic Weather in Lincoln — Graph

°F

Lincoln temperature yesterday

Maximum temperature yesterday: 87 °F (at 2:54 PM)
Minimum temperature yesterday: 63 °F (at 11:54 PM)
Average temperature yesterday: 76 °F

Past Weeks' High & Low Weather Summary

 TemperatureHumidityPressure
High90 °F (Sep 8, 4:54 PM)97% (Sep 13, 2:54 AM)30.48 "Hg (Sep 13, 2:54 AM)
Low36 °F (Sep 13, 5:54 AM)33% (Sep 20, 3:54 PM)29.55 "Hg (Sep 9, 6:54 PM)
Average63 °F73%30.06 "Hg
* Reported Sep 6 5:54 PM — Sep 21 5:54 PM, Lincoln, Weather by CustomWeather, © 2014

Note: Actual official high and low records may vary slightly from our data, if they occured in-between our weather recording intervals... More about our weather records

Advertising

Lincoln weather history for previous 24 hours

 ConditionsComfort  
Time TempWeatherWind HumidityBarometerVisibility
5:54 PM
Sep 21
72 °FSunny.15 mph40%30.21 "Hg10 mi
4:54 PM74 °FLight rain. Sunny.16 mph36%30.20 "Hg10 mi
3:54 PM74 °FSunny.18 mph38%30.21 "Hg10 mi
2:54 PM74 °FSunny.21 mph36%30.20 "Hg10 mi
1:54 PM73 °FSunny.17 mph38%30.22 "Hg10 mi
12:54 PM73 °FSunny.20 mph38%30.23 "Hg10 mi
11:54 AM71 °FSunny.17 mph41%30.24 "Hg10 mi
10:54 AM69 °FSunny.13 mph45%30.23 "Hg10 mi
9:54 AM65 °FSunny.14 mph51%30.23 "Hg10 mi
8:54 AM60 °FSunny.12 mph62%30.21 "Hg10 mi
7:54 AM55 °FClear.8 mph74%30.20 "Hg10 mi
6:54 AM50 °FClear.No wind86%30.17 "Hg10 mi
5:54 AM55 °FClear.No wind77%30.14 "Hg10 mi
4:54 AM53 °FClear.No wind83%30.12 "Hg10 mi
3:54 AM54 °FClear.No wind83%30.11 "Hg10 mi
2:54 AM56 °FClear.3 mph81%30.09 "Hg10 mi
1:54 AM57 °FClear.5 mph81%30.09 "Hg10 mi
12:54 AM64 °FClear.9 mph63%30.07 "Hg10 mi
11:54 PM
Sep 20
63 °FClear.13 mph68%30.06 "Hg10 mi
10:54 PM70 °FClear.15 mph57%30.04 "Hg10 mi
9:54 PM71 °FClear.6 mph59%30.00 "Hg10 mi
8:54 PM70 °FClear.No wind68%29.96 "Hg10 mi
7:54 PM77 °FSunny.5 mph54%29.93 "Hg10 mi
Weather by CustomWeather, © 2014

See weather overviewHow to use our weather pages